AAL981 KCLT-KPBI

Flight info

Callsign AAL981
Flight time 1h 24m
Altitude 36000
Route ICONS5 NOOKS WURFL Q83 JEVED Q97 KENLL CPTAN3
Aircraft A321/M-SDE3FGHIRWY/LB1

Departure

Time 2026-04-23 20:26
Airport Charlotte Douglas International Airport (KCLT)

Arrival

Time 2026-04-23 21:50
Airport Palm Beach International Airport (KPBI)
Time Latitude Longitude Altitude Speed Heading
2026-04-23 19:46 35.21877 -80.94473 732 ft 0 kts 286°
2026-04-23 19:53 35.21877 -80.94472 733 ft 0 kts 286°
2026-04-23 20:10 35.21869 -80.94440 732 ft 4 kts 267°
2026-04-23 20:10 35.21875 -80.94414 731 ft 4 kts 233°
2026-04-23 20:10 35.21895 -80.94396 731 ft 4 kts 195°
2026-04-23 20:11 35.21921 -80.94390 732 ft 3 kts 190°
2026-04-23 20:11 35.21909 -80.94392 732 ft 4 kts 191°
2026-04-23 20:11 35.21882 -80.94398 732 ft 4 kts 188°
2026-04-23 20:11 35.21861 -80.94402 731 ft 4 kts 189°
2026-04-23 20:12 35.21834 -80.94406 732 ft 4 kts 185°
2026-04-23 20:12 35.21810 -80.94406 732 ft 0 kts 178°
2026-04-23 20:15 35.21808 -80.94406 732 ft 1 kts 178°
2026-04-23 20:16 35.21799 -80.94406 732 ft 2 kts 178°
2026-04-23 20:16 35.21783 -80.94403 732 ft 3 kts 167°
2026-04-23 20:16 35.21757 -80.94391 732 ft 6 kts 158°
2026-04-23 20:16 35.21705 -80.94379 732 ft 8 kts 181°
2026-04-23 20:17 35.21650 -80.94429 732 ft 13 kts 240°
2026-04-23 20:17 35.21627 -80.94536 732 ft 13 kts 263°
2026-04-23 20:17 35.21621 -80.94653 732 ft 14 kts 266°
2026-04-23 20:17 35.21613 -80.94778 732 ft 15 kts 266°
2026-04-23 20:18 35.21606 -80.94909 733 ft 15 kts 265°
2026-04-23 20:18 35.21565 -80.95012 732 ft 14 kts 197°
2026-04-23 20:18 35.21543 -80.95014 733 ft 0 kts 181°
2026-04-23 20:18 35.21542 -80.95014 733 ft 0 kts 181°
2026-04-23 20:19 35.21539 -80.95014 733 ft 0 kts 179°
2026-04-23 20:19 35.21515 -80.95012 733 ft 9 kts 176°
2026-04-23 20:19 35.21429 -80.95005 733 ft 12 kts 175°
2026-04-23 20:20 35.21398 -80.94940 733 ft 9 kts 59°
2026-04-23 20:20 35.21458 -80.94918 733 ft 10 kts 360°
2026-04-23 20:20 35.21532 -80.94925 733 ft 11 kts 355°
2026-04-23 20:20 35.21610 -80.94932 733 ft 10 kts 356°
2026-04-23 20:21 35.21675 -80.94937 733 ft 10 kts 355°
2026-04-23 20:21 35.21749 -80.94945 733 ft 11 kts 355°
2026-04-23 20:21 35.21831 -80.94954 733 ft 12 kts 354°
2026-04-23 20:21 35.21920 -80.94964 733 ft 13 kts 355°
2026-04-23 20:22 35.22016 -80.94971 733 ft 14 kts 356°
2026-04-23 20:22 35.22120 -80.94974 733 ft 15 kts 357°
2026-04-23 20:22 35.22230 -80.94984 733 ft 16 kts 356°
2026-04-23 20:22 35.22358 -80.94995 733 ft 20 kts 356°
2026-04-23 20:23 35.22497 -80.95007 733 ft 20 kts 356°
2026-04-23 20:23 35.22640 -80.95019 733 ft 18 kts 355°
2026-04-23 20:23 35.22703 -80.95086 733 ft 13 kts 289°
2026-04-23 20:23 35.22730 -80.95183 735 ft 6 kts 273°
2026-04-23 20:24 35.22730 -80.95184 735 ft 0 kts 272°
2026-04-23 20:24 35.22730 -80.95188 735 ft 2 kts 272°
2026-04-23 20:24 35.22729 -80.95229 737 ft 7 kts 266°
2026-04-23 20:24 35.22718 -80.95297 740 ft 7 kts 238°
2026-04-23 20:25 35.22670 -80.95312 741 ft 8 kts 177°
2026-04-23 20:25 35.22583 -80.95305 741 ft 27 kts 176°
2026-04-23 20:25 35.22132 -80.95267 742 ft 100 kts 176°
2026-04-23 20:25 35.21225 -80.95189 737 ft 159 kts 176°
2026-04-23 20:26 35.20025 -80.95079 1119 ft 171 kts 176°
2026-04-23 20:26 35.18855 -80.94956 1945 ft 168 kts 177°
2026-04-23 20:26 35.17693 -80.94828 2632 ft 170 kts 178°
2026-04-23 20:26 35.16458 -80.94696 2988 ft 187 kts 178°
2026-04-23 20:27 35.15123 -80.94575 3471 ft 199 kts 179°
2026-04-23 20:27 35.13692 -80.94503 3782 ft 214 kts 183°
2026-04-23 20:27 35.12144 -80.94555 4024 ft 233 kts 185°
2026-04-23 20:27 35.10438 -80.94674 4286 ft 256 kts 185°
2026-04-23 20:28 35.08631 -80.94809 4928 ft 264 kts 185°
2026-04-23 20:28 35.06779 -80.94935 5654 ft 268 kts 185°
2026-04-23 20:28 35.04908 -80.95050 6424 ft 270 kts 185°
2026-04-23 20:28 35.03020 -80.95152 7170 ft 272 kts 184°
2026-04-23 20:29 35.01098 -80.95240 7836 ft 278 kts 184°
2026-04-23 20:29 34.99150 -80.95333 8528 ft 282 kts 185°
2026-04-23 20:29 34.97174 -80.95431 9272 ft 286 kts 185°
2026-04-23 20:29 34.95177 -80.95533 9982 ft 289 kts 185°
2026-04-23 20:30 34.93117 -80.95641 10352 ft 306 kts 185°
2026-04-23 20:30 34.88561 -80.95886 10791 ft 344 kts 184°
2026-04-23 20:30 34.86145 -80.96014 11366 ft 350 kts 184°
2026-04-23 20:31 34.83691 -80.96139 11966 ft 355 kts 184°
2026-04-23 20:31 34.81206 -80.96263 12582 ft 360 kts 183°
2026-04-23 20:31 34.78691 -80.96389 13186 ft 364 kts 183°
2026-04-23 20:31 34.76140 -80.96519 13782 ft 370 kts 183°
2026-04-23 20:32 34.73557 -80.96657 14351 ft 373 kts 183°
2026-04-23 20:32 34.70951 -80.96796 14937 ft 377 kts 183°
2026-04-23 20:32 34.68322 -80.96932 15546 ft 379 kts 183°
2026-04-23 20:32 34.65679 -80.97066 16168 ft 381 kts 183°
2026-04-23 20:33 34.63019 -80.97201 16787 ft 384 kts 183°
2026-04-23 20:33 34.60349 -80.97358 17403 ft 386 kts 184°
2026-04-23 20:33 34.57664 -80.97581 18006 ft 388 kts 185°
2026-04-23 20:33 34.54959 -80.97850 18545 ft 391 kts 185°
2026-04-23 20:34 34.52242 -80.98135 19048 ft 394 kts 186°
2026-04-23 20:34 34.49497 -80.98422 19527 ft 397 kts 185°
2026-04-23 20:34 34.46730 -80.98701 20005 ft 401 kts 186°
2026-04-23 20:34 34.43939 -80.98972 20497 ft 404 kts 186°
2026-04-23 20:35 34.41118 -80.99241 20980 ft 408 kts 186°
2026-04-23 20:35 34.38280 -80.99505 21442 ft 411 kts 186°
2026-04-23 20:35 34.35412 -80.99770 21902 ft 415 kts 186°
2026-04-23 20:35 34.32520 -81.00033 22352 ft 418 kts 186°
2026-04-23 20:36 34.29606 -81.00298 22791 ft 422 kts 186°
2026-04-23 20:36 34.26673 -81.00566 23229 ft 425 kts 186°
2026-04-23 20:36 34.23713 -81.00841 23638 ft 428 kts 186°
2026-04-23 20:36 34.20693 -81.01126 24003 ft 431 kts 186°
2026-04-23 20:37 34.17739 -81.01406 24357 ft 433 kts 186°
2026-04-23 20:37 34.14725 -81.01692 24719 ft 435 kts 186°
2026-04-23 20:37 34.11698 -81.01980 25082 ft 437 kts 186°
2026-04-23 20:37 34.08656 -81.02265 25446 ft 440 kts 186°
2026-04-23 20:38 34.05600 -81.02547 25805 ft 442 kts 186°
2026-04-23 20:38 34.02485 -81.02835 26163 ft 444 kts 186°
2026-04-23 20:38 33.99439 -81.03114 26509 ft 446 kts 186°
2026-04-23 20:38 33.96292 -81.03334 26860 ft 449 kts 183°
2026-04-23 20:39 33.93164 -81.03395 27209 ft 451 kts 181°
2026-04-23 20:39 33.90016 -81.03346 27549 ft 453 kts 180°
2026-04-23 20:39 33.86856 -81.03242 27865 ft 455 kts 179°
2026-04-23 20:39 33.83687 -81.03132 28191 ft 457 kts 180°
2026-04-23 20:40 33.80498 -81.03047 28508 ft 459 kts 180°
2026-04-23 20:40 33.77338 -81.02992 28814 ft 461 kts 181°
2026-04-23 20:40 33.74124 -81.02960 29121 ft 463 kts 181°
2026-04-23 20:40 33.70901 -81.02944 29439 ft 465 kts 181°
2026-04-23 20:41 33.67655 -81.02931 29758 ft 467 kts 181°
2026-04-23 20:41 33.64395 -81.02915 30067 ft 469 kts 181°
2026-04-23 20:41 33.61131 -81.02891 30382 ft 469 kts 181°
2026-04-23 20:41 33.57871 -81.02862 30781 ft 468 kts 181°
2026-04-23 20:42 33.54616 -81.02832 31128 ft 467 kts 181°
2026-04-23 20:42 33.51371 -81.02801 31462 ft 467 kts 181°
2026-04-23 20:42 33.48119 -81.02768 31805 ft 467 kts 181°
2026-04-23 20:42 33.44876 -81.02733 32161 ft 467 kts 181°
2026-04-23 20:43 33.41626 -81.02702 32497 ft 466 kts 181°
2026-04-23 20:43 33.38382 -81.02674 32829 ft 466 kts 181°
2026-04-23 20:43 33.35143 -81.02645 33153 ft 466 kts 181°
2026-04-23 20:43 33.31905 -81.02615 33489 ft 465 kts 181°
2026-04-23 20:44 33.28669 -81.02583 33815 ft 465 kts 181°
2026-04-23 20:44 33.25435 -81.02550 34127 ft 465 kts 181°
2026-04-23 20:44 33.22203 -81.02516 34392 ft 464 kts 181°
2026-04-23 20:44 33.18970 -81.02484 34654 ft 464 kts 181°
2026-04-23 20:45 33.15740 -81.02455 34914 ft 465 kts 181°
2026-04-23 20:45 33.12510 -81.02428 35170 ft 465 kts 181°
2026-04-23 20:45 33.09276 -81.02399 35427 ft 465 kts 181°
2026-04-23 20:45 33.06041 -81.02371 35682 ft 465 kts 181°
2026-04-23 20:46 33.02806 -81.02341 35925 ft 465 kts 181°
2026-04-23 20:46 32.99566 -81.02310 36039 ft 465 kts 181°
2026-04-23 20:46 32.93124 -81.02251 36056 ft 462 kts 181°
2026-04-23 20:47 32.86699 -81.02193 36058 ft 462 kts 181°
2026-04-23 20:47 32.80275 -81.02140 36067 ft 461 kts 181°
2026-04-23 20:48 32.73865 -81.02080 36065 ft 460 kts 181°
2026-04-23 20:48 32.67455 -81.02016 36078 ft 461 kts 181°
2026-04-23 20:49 32.61046 -81.01962 36090 ft 461 kts 181°
2026-04-23 20:49 32.54632 -81.01913 36092 ft 461 kts 181°
2026-04-23 20:50 32.48218 -81.01913 36102 ft 460 kts 182°
2026-04-23 20:50 32.41818 -81.02050 36103 ft 460 kts 182°
2026-04-23 20:51 32.35421 -81.02200 36108 ft 460 kts 182°
2026-04-23 20:51 32.29031 -81.02320 36102 ft 459 kts 182°
2026-04-23 20:52 32.22636 -81.02434 36100 ft 460 kts 182°
2026-04-23 20:52 32.16238 -81.02551 36098 ft 460 kts 182°
2026-04-23 20:53 32.09840 -81.02658 36077 ft 460 kts 182°
2026-04-23 20:53 32.03440 -81.02763 36076 ft 460 kts 182°
2026-04-23 20:54 31.97038 -81.02884 36075 ft 460 kts 182°
2026-04-23 20:54 31.90643 -81.03064 36077 ft 459 kts 182°
2026-04-23 20:55 31.84258 -81.03261 36087 ft 459 kts 182°
2026-04-23 20:55 31.77872 -81.03439 36093 ft 459 kts 182°
2026-04-23 20:56 31.71485 -81.03611 36099 ft 459 kts 182°
2026-04-23 20:56 31.65109 -81.03775 36110 ft 458 kts 182°
2026-04-23 20:57 31.58743 -81.03944 36112 ft 457 kts 182°
2026-04-23 20:57 31.52395 -81.04257 36110 ft 457 kts 184°
2026-04-23 20:58 31.46056 -81.04727 36115 ft 456 kts 185°
2026-04-23 20:58 31.39730 -81.05181 36121 ft 455 kts 184°
2026-04-23 20:59 31.33403 -81.05592 36113 ft 455 kts 184°
2026-04-23 20:59 31.27090 -81.05992 36122 ft 454 kts 184°
2026-04-23 21:00 31.21797 -81.06279 36119 ft 454 kts 183°
2026-04-23 21:00 31.15475 -81.06401 36120 ft 454 kts 181°
2026-04-23 21:01 31.09157 -81.06456 36127 ft 453 kts 182°
2026-04-23 21:01 31.02852 -81.06556 36124 ft 453 kts 182°
2026-04-23 21:02 30.96555 -81.06691 36124 ft 452 kts 182°
2026-04-23 21:02 30.90262 -81.06836 36127 ft 452 kts 182°
2026-04-23 21:03 30.83974 -81.06968 36129 ft 452 kts 182°
2026-04-23 21:03 30.77732 -81.07091 36130 ft 451 kts 182°
2026-04-23 21:04 30.71456 -81.07219 36126 ft 451 kts 182°
2026-04-23 21:04 30.65182 -81.07348 36126 ft 451 kts 182°
2026-04-23 21:05 30.58912 -81.07537 36132 ft 450 kts 184°
2026-04-23 21:05 30.52658 -81.07933 36134 ft 450 kts 185°
2026-04-23 21:06 30.46411 -81.08375 36138 ft 450 kts 185°
2026-04-23 21:06 30.40161 -81.08774 36132 ft 450 kts 185°
2026-04-23 21:07 30.33914 -81.09144 36135 ft 450 kts 185°
2026-04-23 21:07 30.27664 -81.09505 36133 ft 450 kts 185°
2026-04-23 21:08 30.21414 -81.09877 36125 ft 449 kts 185°
2026-04-23 21:08 30.15171 -81.10250 36127 ft 449 kts 185°
2026-04-23 21:09 30.08937 -81.10623 36122 ft 449 kts 185°
2026-04-23 21:09 30.02699 -81.10996 36129 ft 448 kts 185°
2026-04-23 21:10 29.96478 -81.11374 36133 ft 448 kts 185°
2026-04-23 21:10 29.90259 -81.11747 36134 ft 447 kts 185°
2026-04-23 21:11 29.84044 -81.12113 36132 ft 447 kts 185°
2026-04-23 21:11 29.77823 -81.12382 36131 ft 448 kts 183°
2026-04-23 21:12 29.71547 -81.12386 36136 ft 448 kts 182°
2026-04-23 21:12 29.65363 -81.12331 36140 ft 448 kts 182°
2026-04-23 21:13 29.59134 -81.12239 36140 ft 449 kts 177°
2026-04-23 21:13 29.53050 -81.10554 36133 ft 453 kts 162°
2026-04-23 21:14 29.47121 -81.08081 36122 ft 453 kts 163°
2026-04-23 21:14 29.41185 -81.05620 36116 ft 453 kts 164°
2026-04-23 21:15 29.35250 -81.03173 36117 ft 454 kts 164°
2026-04-23 21:15 29.29310 -81.00720 36119 ft 454 kts 164°
2026-04-23 21:16 29.23372 -80.98270 36119 ft 454 kts 164°
2026-04-23 21:16 29.17427 -80.95819 36110 ft 455 kts 165°
2026-04-23 21:17 29.11466 -80.93367 36109 ft 455 kts 165°
2026-04-23 21:17 29.05501 -80.90909 36116 ft 456 kts 165°
2026-04-23 21:18 28.99519 -80.88450 36117 ft 457 kts 165°
2026-04-23 21:18 28.93538 -80.86001 36099 ft 457 kts 165°
2026-04-23 21:19 28.87539 -80.83552 36093 ft 459 kts 166°
2026-04-23 21:19 28.84488 -80.82312 35865 ft 472 kts 166°
2026-04-23 21:19 28.81363 -80.81044 35618 ft 481 kts 166°
2026-04-23 21:20 28.78155 -80.79738 35369 ft 485 kts 166°
2026-04-23 21:20 28.75017 -80.78456 35125 ft 485 kts 166°
2026-04-23 21:20 28.71841 -80.77157 34886 ft 484 kts 167°
2026-04-23 21:20 28.68675 -80.75864 34648 ft 483 kts 167°
2026-04-23 21:21 28.65516 -80.74571 34412 ft 481 kts 167°
2026-04-23 21:21 28.62372 -80.73284 34168 ft 479 kts 167°
2026-04-23 21:21 28.59253 -80.72009 33922 ft 475 kts 167°
2026-04-23 21:21 28.56143 -80.70742 33647 ft 473 kts 167°
2026-04-23 21:22 28.53047 -80.69486 33375 ft 471 kts 167°
2026-04-23 21:22 28.49964 -80.68243 33132 ft 469 kts 167°
2026-04-23 21:22 28.46893 -80.67006 32873 ft 468 kts 167°
2026-04-23 21:22 28.43826 -80.65766 32614 ft 467 kts 167°
2026-04-23 21:23 28.40771 -80.64533 32357 ft 465 kts 167°
2026-04-23 21:23 28.37726 -80.63302 32090 ft 462 kts 167°
2026-04-23 21:23 28.34711 -80.62077 31531 ft 459 kts 166°
2026-04-23 21:23 28.31713 -80.60859 31010 ft 457 kts 166°
2026-04-23 21:24 28.28722 -80.59648 30485 ft 455 kts 166°
2026-04-23 21:24 28.25751 -80.58445 29935 ft 452 kts 166°
2026-04-23 21:24 28.22799 -80.57255 29390 ft 449 kts 166°
2026-04-23 21:24 28.19866 -80.56071 28871 ft 445 kts 166°
2026-04-23 21:25 28.16962 -80.54898 28355 ft 441 kts 166°
2026-04-23 21:25 28.14083 -80.53738 27847 ft 437 kts 166°
2026-04-23 21:25 28.11226 -80.52591 27383 ft 434 kts 166°
2026-04-23 21:25 28.08396 -80.51455 26882 ft 430 kts 165°
2026-04-23 21:26 28.05586 -80.50327 26412 ft 427 kts 165°
2026-04-23 21:26 28.02797 -80.49207 25912 ft 424 kts 165°
2026-04-23 21:26 28.00032 -80.48095 25459 ft 420 kts 164°
2026-04-23 21:26 27.97283 -80.46992 25004 ft 418 kts 164°
2026-04-23 21:27 27.94548 -80.45897 24560 ft 416 kts 164°
2026-04-23 21:27 27.91822 -80.44806 24116 ft 416 kts 164°
2026-04-23 21:27 27.89091 -80.43712 23632 ft 416 kts 163°
2026-04-23 21:27 27.86386 -80.42626 23233 ft 411 kts 163°
2026-04-23 21:28 27.83698 -80.41546 22778 ft 409 kts 163°
2026-04-23 21:28 27.81028 -80.40473 22313 ft 406 kts 163°
2026-04-23 21:28 27.78379 -80.39411 21854 ft 403 kts 163°
2026-04-23 21:28 27.75749 -80.38361 21397 ft 399 kts 163°
2026-04-23 21:29 27.73139 -80.37318 20944 ft 396 kts 163°
2026-04-23 21:29 27.70549 -80.36283 20493 ft 393 kts 163°
2026-04-23 21:29 27.67978 -80.35257 20047 ft 390 kts 163°
2026-04-23 21:29 27.65460 -80.34152 19603 ft 389 kts 158°
2026-04-23 21:30 27.63025 -80.32859 19074 ft 382 kts 157°
2026-04-23 21:30 27.60641 -80.31595 18117 ft 376 kts 157°
2026-04-23 21:30 27.58286 -80.30351 17051 ft 371 kts 157°
2026-04-23 21:30 27.55967 -80.29125 16104 ft 365 kts 157°
2026-04-23 21:31 27.53695 -80.27926 15630 ft 361 kts 157°
2026-04-23 21:31 27.51418 -80.26727 15126 ft 361 kts 157°
2026-04-23 21:31 27.49149 -80.25532 14621 ft 359 kts 157°
2026-04-23 21:31 27.46888 -80.24343 14116 ft 357 kts 157°
2026-04-23 21:32 27.44638 -80.23160 13579 ft 356 kts 157°
2026-04-23 21:32 27.42408 -80.21986 13079 ft 352 kts 157°
2026-04-23 21:32 27.40202 -80.20825 12568 ft 349 kts 157°
2026-04-23 21:32 27.38015 -80.19675 12080 ft 345 kts 157°
2026-04-23 21:33 27.35852 -80.18536 11601 ft 341 kts 157°
2026-04-23 21:33 27.33712 -80.17407 11118 ft 338 kts 157°
2026-04-23 21:33 27.31597 -80.16293 10648 ft 333 kts 157°
2026-04-23 21:33 27.29556 -80.15218 10257 ft 313 kts 157°
2026-04-23 21:34 27.27639 -80.14208 9916 ft 294 kts 156°
2026-04-23 21:34 27.25784 -80.13233 9999 ft 297 kts 157°
2026-04-23 21:34 27.23902 -80.12276 9858 ft 296 kts 158°
2026-04-23 21:34 27.22015 -80.11357 9518 ft 295 kts 159°
2026-04-23 21:35 27.20132 -80.10458 9150 ft 293 kts 159°
2026-04-23 21:35 27.18262 -80.09567 8767 ft 291 kts 159°
2026-04-23 21:35 27.16404 -80.08680 8396 ft 289 kts 158°
2026-04-23 21:35 27.14564 -80.07797 8015 ft 286 kts 158°
2026-04-23 21:36 27.10940 -80.06033 7262 ft 282 kts 156°
2026-04-23 21:36 27.09148 -80.05145 6893 ft 280 kts 156°
2026-04-23 21:36 27.07370 -80.04260 6518 ft 279 kts 156°
2026-04-23 21:37 27.05602 -80.03383 6132 ft 276 kts 155°
2026-04-23 21:37 27.03857 -80.02517 5771 ft 273 kts 155°
2026-04-23 21:37 27.02126 -80.01659 5401 ft 271 kts 154°
2026-04-23 21:37 27.00408 -80.00807 5042 ft 269 kts 154°
2026-04-23 21:38 26.98707 -79.99970 4689 ft 266 kts 156°
2026-04-23 21:38 26.96899 -79.99567 4552 ft 268 kts 180°
2026-04-23 21:38 26.95080 -80.00029 4490 ft 273 kts 205°
2026-04-23 21:38 26.93588 -80.01351 4430 ft 278 kts 228°
2026-04-23 21:39 26.92370 -80.03035 4369 ft 279 kts 229°
2026-04-23 21:39 26.91153 -80.04725 4301 ft 278 kts 230°
2026-04-23 21:39 26.89976 -80.06359 4224 ft 257 kts 229°
2026-04-23 21:39 26.89246 -80.07375 4194 ft 241 kts 229°
2026-04-23 21:40 26.88205 -80.08816 4107 ft 235 kts 229°
2026-04-23 21:40 26.87178 -80.10227 4004 ft 233 kts 229°
2026-04-23 21:40 26.86157 -80.11627 4006 ft 232 kts 228°
2026-04-23 21:40 26.85132 -80.13030 4011 ft 233 kts 228°
2026-04-23 21:41 26.84105 -80.14437 4009 ft 234 kts 228°
2026-04-23 21:41 26.83082 -80.15845 4010 ft 233 kts 229°
2026-04-23 21:41 26.82057 -80.17254 4012 ft 233 kts 228°
2026-04-23 21:41 26.81036 -80.18659 4011 ft 233 kts 228°
2026-04-23 21:42 26.80013 -80.20066 4012 ft 233 kts 228°
2026-04-23 21:42 26.79188 -80.21641 3935 ft 237 kts 248°
2026-04-23 21:42 26.78897 -80.23449 3825 ft 238 kts 269°
2026-04-23 21:42 26.79123 -80.25293 3628 ft 241 kts 279°
2026-04-23 21:43 26.79238 -80.27142 3408 ft 237 kts 266°
2026-04-23 21:43 26.79076 -80.28961 3157 ft 234 kts 262°
2026-04-23 21:43 26.78824 -80.30750 2859 ft 231 kts 248°
2026-04-23 21:43 26.78017 -80.32261 2673 ft 226 kts 221°
2026-04-23 21:44 26.76727 -80.33185 2491 ft 217 kts 194°
2026-04-23 21:44 26.75297 -80.33374 2315 ft 200 kts 169°
2026-04-23 21:44 26.74049 -80.32934 2170 ft 177 kts 147°
2026-04-23 21:44 26.73159 -80.32141 2077 ft 155 kts 130°
2026-04-23 21:45 26.72595 -80.31159 2021 ft 147 kts 113°
2026-04-23 21:45 26.72179 -80.30115 2004 ft 147 kts 114°
2026-04-23 21:45 26.71758 -80.29081 2005 ft 145 kts 115°
2026-04-23 21:45 26.71341 -80.28058 2013 ft 145 kts 114°
2026-04-23 21:46 26.70929 -80.27042 2003 ft 144 kts 114°
2026-04-23 21:46 26.70518 -80.26027 2012 ft 143 kts 114°
2026-04-23 21:46 26.70111 -80.25022 2006 ft 142 kts 115°
2026-04-23 21:46 26.69704 -80.24018 2003 ft 142 kts 115°
2026-04-23 21:47 26.69295 -80.23010 2014 ft 142 kts 115°
2026-04-23 21:47 26.68893 -80.22004 1998 ft 142 kts 111°
2026-04-23 21:47 26.68791 -80.20920 1849 ft 140 kts 93°
2026-04-23 21:47 26.68729 -80.19847 1666 ft 138 kts 95°
2026-04-23 21:48 26.68672 -80.18777 1472 ft 138 kts 96°
2026-04-23 21:48 26.68622 -80.17716 1313 ft 137 kts 96°
2026-04-23 21:48 26.68573 -80.16656 1129 ft 136 kts 96°
2026-04-23 21:48 26.68530 -80.15600 980 ft 136 kts 94°
2026-04-23 21:49 26.68488 -80.14545 774 ft 136 kts 95°
2026-04-23 21:49 26.68448 -80.13492 598 ft 135 kts 95°
2026-04-23 21:49 26.68393 -80.12441 413 ft 135 kts 95°
2026-04-23 21:49 26.68346 -80.11400 217 ft 134 kts 94°
2026-04-23 21:50 26.68298 -80.10356 65 ft 134 kts 95°
2026-04-23 21:50 26.68255 -80.09342 28 ft 120 kts 95°
2026-04-23 21:50 26.68223 -80.08600 22 ft 57 kts 92°
2026-04-23 21:50 26.68211 -80.08271 22 ft 27 kts 92°
2026-04-23 21:51 26.68260 -80.08162 22 ft 10 kts 13°
2026-04-23 21:51 26.68301 -80.08170 22 ft 6 kts 324°
2026-04-23 21:51 26.68318 -80.08222 22 ft 8 kts 277°
2026-04-23 21:51 26.68321 -80.08290 22 ft 10 kts 272°
2026-04-23 21:52 26.68324 -80.08373 22 ft 11 kts 272°
2026-04-23 21:52 26.68328 -80.08467 22 ft 13 kts 272°
2026-04-23 21:52 26.68333 -80.08574 22 ft 15 kts 273°
2026-04-23 21:52 26.68338 -80.08693 22 ft 16 kts 273°
2026-04-23 21:53 26.68344 -80.08823 22 ft 17 kts 272°
2026-04-23 21:53 26.68349 -80.08958 22 ft 16 kts 272°
2026-04-23 21:53 26.68355 -80.09087 22 ft 17 kts 273°
2026-04-23 21:53 26.68361 -80.09227 22 ft 19 kts 273°
2026-04-23 21:54 26.68383 -80.09337 22 ft 14 kts 309°
2026-04-23 21:54 26.68452 -80.09378 22 ft 9 kts 19°
2026-04-23 21:54 26.68496 -80.09341 22 ft 8 kts 43°
2026-04-23 21:54 26.68532 -80.09312 22 ft 6 kts 15°
2026-04-23 21:55 26.68567 -80.09313 22 ft 5 kts 358°
2026-04-23 21:55 26.68595 -80.09315 22 ft 3 kts 355°
2026-04-23 21:55 26.68618 -80.09316 22 ft 2 kts 355°
2026-04-23 21:55 26.68625 -80.09317 22 ft 0 kts 355°